Tracking 28794 objects as of 19-Apr-2024
HD Live streaming from Space Station
objects crossing your sky now

RADUGA 23

Track RADUGA 23 now!
RADUGA 23 is classified as:


NORAD ID: 19928
Int'l Code: 1989-030A
Perigee: 35,729.7 km
Apogee: 35,907.7 km
Inclination: 12.7 °
Period: 1,437.4 minutes
Semi major axis: 42189 km
RCS: 3.1622 m2 (large)
Launch date: April 14, 1989
Source: Commonwealth of Independent States (former USSR) (CIS)
Launch site: TYURATAM MISSILE AND SPACE COMPLEX (TTMTR)
Your satellite tracking list
Your tracking list is empty




NASA's NSSDC Master Catalog

Two Line Element Set (TLE):
1 19928U 89030A   24110.69243762  .00000008  00000-0  00000+0 0  9993
2 19928  12.7233 337.4157 0021100 179.7647   4.5043  1.00182730126933
Source of the keplerian elements: AFSPC